Pineville, MO (64856)

11:16 PM CST on December 02, 2016 (GMT -0600)
Brush Creek | | Change Station

Elev 1056 ft 36.51 °N, 94.34 °W | Updated 8 seconds ago

Clear
Clear
43.5 °F
Feels Like 44 °F
N
1.8
Wind Variable Wind from SE
Gusts 2.5 mph

Today
High -- | Low -- °F
--% Chance of Precip.
Yesterday
High -- | Low -- °F
Precip. -- in
Pressure 30.26 in
Visibility 10.0 miles
Clouds Clear
Windchill 44 °F
Dew Point 35 °F
Humidity 72%
Rainfall 0.00 in
Snow Depth Not available.
7:12 AM 5:01 PM
Waxing Crescent, 12% visible
METAR KVBT 030455Z AUTO 08004KT 10SM CLR 10/M02 A3026 RMK AO1
Pressure 30.26 in
Visibility 10.0 miles
Clouds Clear
Windchill 44 °F
Dew Point 35 °F
Humidity 72%
Rainfall 0.00 in
Snow Depth Not available.
7:12 AM 5:01 PM
Waxing Crescent, 12% visible
METAR KVBT 030455Z AUTO 08004KT 10SM CLR 10/M02 A3026 RMK AO1

10-Day Weather Forecast

Almanac

Astronomy

Dec. 02, 2016 Rise Set
Actual Time
Civil Twilight
Nautical Twilight
Astronomical Twilight
Moon
Length of Visible Light
Length of Day
Tomorrow will be .
, % of the Moon is Illuminated

Today's Extremes

State Highs State Lows

Community

WunderPhotos

Upload Photos

1,955,405 photos uploaded!

WunderBlog® & News

Nearby

Air Quality

  Air Quality AQ Index Pollutant
Not available.

Snow Depth

Station Depth Elevation

Earthquake Activity

City Distance Mag. Time & Date
Minimum magnitude displayed is 2.5.

Coastal Water Temperatures

Place Temperature

Stations

Nearby Weather Stations

Station Location Temp. Windchill Dew Point Humidity Wind Precip. Elev Updated Type
                   

Watches & Warnings

There are currently no watches in effect.